Content
SEND FEEDBACK

Daily
Averages
Monthly
Summary
United States of America

MANGILAO, GUAM


Home > North America > United States > Guam
Elevation: 60 feet     Latitude: 13 27N     Longitude: 144 49E

WEATHER
 
SELECT A DAY
Number of Records: 341,524;   Date Range: 1/1/95 - 7/7/14
 
SHARE

PRINT THIS DATA

[ ← Previous Day ]
WEATHER ALMANAC - JANUARY 21, 2013
[ Next Day → ]
[ °C ]   °F
Weather ElementAverageHighLow
Temperature75.1 °F77.2 °F (2:55 pm)73.4 °F (6:16 am)
Dewpoint72.8 °F75.2 °F (12:52 am)69.6 °F (5:55 pm)
Humidity92.4 %100 % (1:17 am)78 % (4:55 pm)
Barometer29.89 in29.94 in (9:14 am)29.84 in (3:43 am)
Wind Speed26.6 mph34.5 mph (11:59 am)
Wind Gust42.6 mph (9:43 am)
Weather ElementAverage
Visibility5.6 mi
Wind DirectionNE (39.7 °)

Weather ElementTotal
Precipitation0.83 in
Cooling Degree Days10.3 (Base 65)
Growing Degree Days25.3 (Base 50)
Averaged from 202 records on January 21, 2013
WEATHER CONDITIONS BREAKOUT
WIND DIRECTION BREAKOUT
WEATHER BY HOUR - JANUARY 21, 2013
[ °C ]   °F
Local TimeTemperatureDewpointHumidityBarometerVisibilityWind DirectionWind SpeedGust SpeedPrecipitationEventsConditions
12:05 AM75.2 °F73.4 °F94 %29.89 in3.0 miNE (50°)29.9 mph39.1 mphRainLight Rain
12:14 AM75.2 °F73.4 °F94 %29.89 in7.0 miNE (40°)24.2 mph36.8 mphLight Drizzle
12:18 AM75.2 °F73.4 °F94 %29.89 in8.0 miNE (40°)25.3 mph31.1 mphOvercast
12:25 AM75.2 °F73.4 °F94 %29.89 in10.0 miNE (50°)24.2 mph31.1 mphOvercast
12:32 AM75.2 °F73.4 °F94 %29.89 in10.0 miNE (50°)18.4 mphOvercast
12:39 AM75.2 °F73.4 °F94 %29.88 in10.0 miNE (50°)24.2 mphOvercast
12:52 AM77.0 °F75.2 °F94 %29.88 in10.0 miNE (40°)23.0 mph29.9 mphOvercast
12:55 AM76.5 °F74.8 °F95 %29.88 in9.0 miNE (40°)21.9 mph29.9 mph0.06 inMostly Cloudy
12:56 AM77.0 °F75.2 °F94 %29.88 in7.0 miNE (40°)25.3 mph32.2 mphRainLight Rain
1:02 AM77.0 °F75.2 °F94 %29.88 in5.0 miNE (40°)23.0 mph32.2 mphRainLight Rain
1:03 AM77.0 °F75.2 °F94 %29.88 in5.0 miNE (40°)20.7 mph32.2 mphRainLight Rain
1:04 AM77.0 °F75.2 °F94 %29.88 in5.0 miNE (40°)21.9 mph32.2 mphRainLight Rain
1:09 AM77.0 °F75.2 °F94 %29.88 in8.0 miNE (50°)21.9 mph28.8 mphRainRain
1:17 AM75.2 °F75.2 °F100 %29.88 in4.0 miNE (40°)28.8 mph34.5 mphRainRain
1:30 AM75.2 °F73.4 °F94 %29.87 in8.0 miNE (40°)27.6 mph33.4 mphOvercast
1:32 AM75.2 °F73.4 °F94 %29.87 in8.0 miNE (50°)27.6 mphOvercast
1:40 AM75.2 °F73.4 °F94 %29.87 in9.0 miNNE (30°)23.0 mphOvercast
1:41 AM75.2 °F73.4 °F94 %29.87 in9.0 miNNE (30°)24.2 mphLight Drizzle
1:49 AM75.2 °F73.4 °F94 %29.87 in9.0 miNE (40°)24.2 mph28.8 mphLight Drizzle
1:50 AM75.2 °F73.4 °F94 %29.87 in10.0 miNE (40°)25.3 mphOvercast
1:55 AM75.7 °F74.3 °F95 %29.86 in10.0 miNNE (30°)23.0 mph31.1 mph0.04 inOvercast
1:59 AM75.2 °F75.2 °F100 %29.86 in5.0 miNE (50°)26.5 mph31.1 mphRainRain
2:01 AM75.2 °F75.2 °F100 %29.86 in3.0 miNE (40°)27.6 mph34.5 mphRainRain
2:03 AM75.2 °F73.4 °F94 %29.86 in2.5 miNE (40°)26.5 mph34.5 mphRainHeavy Rain
2:05 AM75.2 °F73.4 °F94 %29.86 in2.0 miNE (50°)23.0 mph34.5 mphRainHeavy Rain
2:08 AM75.2 °F73.4 °F94 %29.86 in2.0 miNE (40°)24.2 mph34.5 mphRainLight Rain
2:09 AM75.2 °F73.4 °F94 %29.86 in2.5 miNE (40°)23.0 mph34.5 mphRainLight Rain
2:10 AM75.2 °F73.4 °F94 %29.86 in3.0 miNE (40°)23.0 mph34.5 mphRainLight Rain
2:16 AM75.2 °F73.4 °F94 %29.86 in7.0 miNE (40°)24.2 mphRainLight Rain
2:17 AM75.2 °F73.4 °F94 %29.86 in7.0 miNE (40°)23.0 mphOvercast
2:24 AM75.2 °F73.4 °F94 %29.85 in10.0 miNE (40°)24.2 mph28.8 mphOvercast
2:25 AM75.2 °F73.4 °F94 %29.85 in9.0 miNE (40°)24.2 mph28.8 mphOvercast
2:28 AM75.2 °F73.4 °F94 %29.85 in7.0 miNE (40°)21.9 mph28.8 mphRainLight Rain
2:32 AM75.2 °F73.4 °F94 %29.86 in2.5 miNE (50°)31.1 mph39.1 mphRainRain
2:33 AM75.2 °F73.4 °F94 %29.85 in2.0 miNE (50°)29.9 mph39.1 mphRainHeavy Rain
2:35 AM75.2 °F73.4 °F94 %29.85 in1.8 miNE (50°)24.2 mph39.1 mphRainHeavy Rain
2:38 AM75.2 °F73.4 °F94 %29.85 in1.5 miNE (50°)24.2 mph39.1 mphRainHeavy Rain
2:42 AM75.2 °F73.4 °F94 %29.85 in1.8 miNE (50°)24.2 mph36.8 mphRainHeavy Rain
2:43 AM75.2 °F73.4 °F94 %29.85 in1.8 miNE (50°)23.0 mph32.2 mphRainHeavy Rain
2:44 AM75.2 °F73.4 °F94 %29.85 in2.0 miNE (50°)21.9 mph32.2 mphRainRain
2:47 AM75.2 °F73.4 °F94 %29.85 in2.0 miNE (40°)26.5 mph32.2 mphRainLight Rain
2:51 AM75.2 °F73.4 °F94 %29.85 in2.5 miNE (40°)24.2 mph32.2 mphRainHeavy Rain
2:52 AM75.2 °F73.4 °F94 %29.85 in2.5 miNE (40°)24.2 mph32.2 mphRainHeavy Rain
2:55 AM75.2 °F74.1 °F96 %29.85 in2.5 miNE (40°)27.6 mph34.5 mph0.24 inRainLight Rain
2:57 AM75.2 °F73.4 °F94 %29.85 in3.0 miNE (40°)28.8 mph34.5 mphRainLight Rain
3:05 AM75.2 °F73.4 °F94 %29.85 in3.0 miNE (40°)28.8 mph36.8 mphRainRain
3:07 AM75.2 °F73.4 °F94 %29.85 in3.0 miNE (40°)28.8 mph36.8 mphRainHeavy Rain
3:08 AM75.2 °F73.4 °F94 %29.85 in2.5 miNE (40°)29.9 mph36.8 mphRainLight Rain
3:10 AM75.2 °F73.4 °F94 %29.85 in2.5 miNE (40°)26.5 mph36.8 mphRainLight Rain
3:12 AM75.2 °F73.4 °F94 %29.85 in3.0 miNE (40°)26.5 mph36.8 mphRainLight Rain
3:15 AM75.2 °F73.4 °F94 %29.85 in4.0 miNE (40°)25.3 mph32.2 mphOvercast
3:16 AM75.2 °F73.4 °F94 %29.85 in4.0 miNE (40°)24.2 mph32.2 mphRainLight Rain
3:18 AM75.2 °F73.4 °F94 %29.85 in4.0 miNE (40°)27.6 mph32.2 mphRainLight Rain
3:19 AM75.2 °F73.4 °F94 %29.85 in4.0 miNE (40°)31.1 mph36.8 mphOvercast
3:27 AM75.2 °F73.4 °F94 %29.85 in3.0 miNE (40°)24.2 mph40.3 mphRainLight Rain
3:28 AM75.2 °F73.4 °F94 %29.85 in3.0 miNE (40°)24.2 mph40.3 mphRainLight Rain
3:43 AM75.2 °F73.4 °F94 %29.84 in10.0 miNE (50°)25.3 mph33.4 mphOvercast
3:44 AM75.2 °F73.4 °F94 %29.84 in10.0 miNE (50°)27.6 mph36.8 mphOvercast
3:48 AM75.2 °F73.4 °F94 %29.84 in5.0 miNE (40°)28.8 mph40.3 mphLight Drizzle
3:53 AM75.2 °F73.4 °F94 %29.84 in4.0 miNE (40°)28.8 mph40.3 mphLight Drizzle
3:55 AM75.0 °F73.8 °F96 %29.84 in4.0 miNE (50°)26.5 mph40.3 mph0.06 inLight Drizzle
3:56 AM75.2 °F73.4 °F94 %29.84 in4.0 miNE (50°)25.3 mph40.3 mphOvercast
3:57 AM75.2 °F73.4 °F94 %29.84 in4.0 miNE (40°)27.6 mph40.3 mphRainLight Rain
3:58 AM75.2 °F73.4 °F94 %29.84 in4.0 miNE (40°)26.5 mph40.3 mphOvercast
4:00 AM75.2 °F73.4 °F94 %29.84 in3.0 miNE (40°)28.8 mph40.3 mphRainLight Rain
4:02 AM75.2 °F73.4 °F94 %29.84 in2.5 miNE (40°)29.9 mph40.3 mphRainLight Rain
4:08 AM75.2 °F73.4 °F94 %29.84 in3.0 miNE (40°)27.6 mph35.7 mphRainLight Rain
4:20 AM75.2 °F73.4 °F94 %29.85 in8.0 miNNE (30°)21.9 mph32.2 mphOvercast
4:21 AM75.2 °F73.4 °F94 %29.85 in7.0 miNNE (30°)21.9 mph32.2 mphRainLight Rain
4:27 AM75.2 °F73.4 °F94 %29.85 in3.0 miNE (40°)25.3 mph40.3 mphRainHeavy Rain
4:55 AM75.0 °F73.9 °F96 %29.85 in5.0 miNE (40°)21.9 mph28.8 mph0.11 inRainLight Rain
5:00 AM75.2 °F73.4 °F94 %29.85 in4.0 miNNE (30°)25.3 mph32.2 mphRainLight Rain
5:03 AM75.2 °F73.4 °F94 %29.86 in3.0 miNE (40°)27.6 mph32.2 mphOvercast
5:04 AM75.2 °F73.4 °F94 %29.86 in3.0 miNE (40°)25.3 mph32.2 mphRainLight Rain
5:08 AM75.2 °F73.4 °F94 %29.86 in2.5 miNNE (30°)27.6 mph32.2 mphRainRain
5:09 AM75.2 °F73.4 °F94 %29.86 in2.5 miNE (40°)28.8 mph34.5 mphRainRain
5:16 AM75.2 °F73.4 °F94 %29.86 in2.5 miNE (40°)27.6 mph34.5 mphRainLight Rain
5:18 AM75.2 °F73.4 °F94 %29.86 in3.0 miNE (40°)27.6 mph34.5 mphRainLight Rain
5:19 AM75.2 °F73.4 °F94 %29.86 in3.0 miNE (40°)28.8 mph34.5 mphRainLight Rain
5:26 AM75.2 °F73.4 °F94 %29.86 in4.0 miNE (40°)26.5 mph34.5 mphRainLight Rain
5:39 AM75.2 °F73.4 °F94 %29.86 in4.0 miNE (40°)26.5 mph36.8 mphRainLight Rain
5:49 AM75.2 °F73.4 °F94 %29.87 in4.0 miNE (40°)24.2 mph34.5 mphRainLight Rain
5:55 AM74.7 °F73.4 °F96 %29.87 in4.0 miNE (40°)27.6 mph34.5 mph0.11 inRainLight Rain
6:06 AM75.2 °F73.4 °F94 %29.87 in2.5 miNNE (30°)25.3 mph33.4 mphRainHeavy Rain
6:14 AM75.2 °F73.4 °F94 %29.88 in3.0 miNE (40°)32.2 mph36.8 mphRainLight Rain
6:16 AM73.4 °F73.4 °F100 %29.88 in4.0 miNE (40°)27.6 mph36.8 mphRainLight Rain
6:18 AM73.4 °F73.4 °F100 %29.88 in5.0 miNE (40°)33.4 mph39.1 mphRainLight Rain
6:24 AM75.2 °F73.4 °F94 %29.88 in7.0 miNE (40°)32.2 mph39.1 mphOvercast
6:26 AM75.2 °F73.4 °F94 %29.88 in7.0 miNNE (30°)26.5 mph39.1 mphOvercast
6:35 AM75.2 °F73.4 °F94 %29.88 in9.0 miNE (40°)25.3 mph32.2 mphOvercast
6:40 AM75.2 °F73.4 °F94 %29.88 in9.0 miNE (40°)25.3 mph33.4 mphOvercast
6:41 AM75.2 °F73.4 °F94 %29.88 in8.0 miNE (40°)26.5 mph33.4 mphRainLight Rain
6:50 AM75.2 °F73.4 °F94 %29.89 in5.0 miNNE (30°)27.6 mph35.7 mphRainLight Rain
6:54 AM73.4 °F73.4 °F100 %29.89 in4.0 miNNE (30°)24.2 mph35.7 mphRainLight Rain
6:55 AM74.3 °F73.0 °F96 %29.89 in4.0 miNNE (30°)24.2 mph35.7 mph0.07 inRainLight Rain
7:07 AM75.2 °F73.4 °F94 %29.89 in4.0 miNNE (30°)23.0 mph32.2 mphRainLight Rain
7:17 AM75.2 °F73.4 °F94 %29.90 in5.0 miNNE (30°)24.2 mph35.7 mphLight Drizzle
7:29 AM75.2 °F73.4 °F94 %29.90 in2.5 miNNE (30°)27.6 mph36.8 mphRainLight Rain
7:30 AM75.2 °F73.4 °F94 %29.90 in2.0 miNNE (30°)28.8 mph36.8 mphRainLight Rain
7:34 AM75.2 °F73.4 °F94 %29.91 in2.5 miNNE (30°)21.9 mph36.8 mphRainRain
7:36 AM73.4 °F73.4 °F100 %29.91 in3.0 miNNE (30°)24.2 mph36.8 mphRainLight Rain
7:38 AM73.4 °F73.4 °F100 %29.90 in3.0 miNNE (30°)28.8 mph36.8 mphRainLight Rain
7:39 AM73.4 °F73.4 °F100 %29.91 in4.0 miNNE (30°)28.8 mph36.8 mphRainLight Rain
7:40 AM73.4 °F73.4 °F100 %29.91 in5.0 miNNE (30°)26.5 mph35.7 mphLight Drizzle
7:44 AM73.4 °F73.4 °F100 %29.91 in10.0 miNE (40°)24.2 mph35.7 mphOvercast
7:55 AM74.7 °F72.9 °F94 %29.91 in10.0 miNE (40°)28.8 mph35.7 mph0.04 inOvercast
8:01 AM75.2 °F73.4 °F94 %29.91 in10.0 miNNE (30°)23.0 mph35.7 mphOvercast
8:04 AM75.2 °F73.4 °F94 %29.91 in8.0 miNNE (30°)23.0 mph35.7 mphRainLight Rain
8:07 AM75.2 °F73.4 °F94 %29.91 in4.0 miNE (40°)24.2 mph29.9 mphRainLight Rain
8:10 AM75.2 °F73.4 °F94 %29.92 in2.5 miNE (40°)28.8 mph32.2 mphRainLight Rain
8:12 AM75.2 °F73.4 °F94 %29.91 in2.0 miNNE (30°)27.6 mph34.5 mphRainLight Rain
8:13 AM75.2 °F73.4 °F94 %29.92 in1.8 miNNE (30°)27.6 mph34.5 mphRainLight Rain
8:16 AM75.2 °F73.4 °F94 %29.92 in1.8 miNE (40°)29.9 mph34.5 mphRainLight Rain
8:18 AM75.2 °F73.4 °F94 %29.92 in1.8 miNE (40°)27.6 mph34.5 mphRainLight Rain
8:20 AM75.2 °F73.4 °F94 %29.92 in2.0 miNE (40°)27.6 mph35.7 mphRainLight Rain
8:22 AM75.2 °F73.4 °F94 %29.92 in2.5 miNE (40°)28.8 mph35.7 mphRainLight Rain
8:24 AM75.2 °F73.4 °F94 %29.92 in3.0 miNNE (30°)27.6 mph35.7 mphRainLight Rain
8:25 AM75.2 °F73.4 °F94 %29.92 in4.0 miNE (40°)27.6 mph35.7 mphRainLight Rain
8:30 AM75.2 °F73.4 °F94 %29.92 in4.0 miNNE (30°)26.5 mph35.7 mphRainLight Rain
8:41 AM75.2 °F73.4 °F94 %29.93 in6.0 miNNE (30°)21.9 mphRainLight Rain
8:46 AM75.2 °F73.4 °F94 %29.93 in2.5 miNE (40°)31.1 mph35.7 mphRainRain
8:48 AM75.2 °F73.4 °F94 %29.93 in2.0 miNE (40°)28.8 mph35.7 mphRainLight Rain
8:51 AM75.2 °F73.4 °F94 %29.93 in1.8 miNE (40°)26.5 mph35.7 mphRainLight Rain
8:55 AM74.3 °F72.9 °F95 %29.93 in1.8 miNE (40°)29.9 mph36.8 mph0.05 inRainLight Rain
8:56 AM73.4 °F73.4 °F100 %29.93 in2.0 miNE (40°)31.1 mph36.8 mphRainRain
8:57 AM73.4 °F73.4 °F100 %29.93 in1.8 miNE (40°)29.9 mph36.8 mphRainLight Rain
8:58 AM73.4 °F73.4 °F100 %29.93 in2.0 miNE (40°)27.6 mph36.8 mphRainLight Rain
9:03 AM73.4 °F71.6 °F94 %29.93 in2.5 miNE (40°)29.9 mph36.8 mphRainLight Rain
9:05 AM73.4 °F73.4 °F100 %29.93 in3.0 miNE (40°)28.8 mph36.8 mphRainLight Rain
9:11 AM75.2 °F73.4 °F94 %29.93 in7.0 miNE (40°)29.9 mph36.8 mphOvercast
9:12 AM75.2 °F73.4 °F94 %29.93 in9.0 miNE (40°)27.6 mph36.8 mphOvercast
9:14 AM75.2 °F73.4 °F94 %29.94 in9.0 miNE (40°)28.8 mph36.8 mphOvercast
9:18 AM73.4 °F71.6 °F94 %29.93 in4.0 miNNE (30°)24.2 mph38.0 mphRainLight Rain
9:20 AM73.4 °F73.4 °F100 %29.93 in4.0 miNE (40°)26.5 mph38.0 mphRainLight Rain
9:23 AM73.4 °F73.4 °F100 %29.93 in4.0 miNE (40°)26.5 mph38.0 mphRainLight Rain
9:33 AM73.4 °F71.6 °F94 %29.93 in2.5 miNE (40°)27.6 mph38.0 mphRainLight Rain
9:38 AM73.4 °F73.4 °F100 %29.93 in3.0 miNE (40°)31.1 mph39.1 mphRainLight Rain
9:43 AM73.4 °F73.4 °F100 %29.93 in9.0 miNE (40°)27.6 mph42.6 mphOvercast
9:47 AM73.4 °F73.4 °F100 %29.93 in10.0 miNNE (30°)23.0 mph42.6 mphOvercast
9:55 AM74.5 °F72.7 °F94 %29.93 in9.0 miNE (40°)26.5 mph35.7 mph0.02 inOvercast
9:58 AM75.2 °F73.4 °F94 %29.93 in8.0 miNE (40°)26.5 mph33.4 mphOvercast
10:01 AM75.2 °F71.6 °F89 %29.93 in7.0 miNE (40°)27.6 mph38.0 mphRainLight Rain
10:12 AM75.2 °F71.6 °F89 %29.93 in7.0 miNE (40°)28.8 mph39.1 mphRainLight Rain
10:20 AM75.2 °F71.6 °F89 %29.93 in7.0 miNE (40°)26.5 mph39.1 mphOvercast
10:21 AM75.2 °F71.6 °F89 %29.93 in8.0 miNE (40°)26.5 mph39.1 mphOvercast
10:23 AM75.2 °F71.6 °F89 %29.93 in6.0 miNE (40°)29.9 mph39.1 mphOvercast
10:25 AM75.2 °F71.6 °F89 %29.93 in3.0 miNE (40°)27.6 mph40.3 mphRainHeavy Rain
10:26 AM75.2 °F71.6 °F89 %29.93 in2.5 miNE (40°)32.2 mph40.3 mphRainHeavy Rain
10:27 AM75.2 °F71.6 °F89 %29.93 in2.5 miNE (40°)32.2 mph40.3 mphRainLight Rain
10:28 AM75.2 °F71.6 °F89 %29.93 in2.0 miNE (40°)32.2 mph40.3 mphRainLight Rain
10:35 AM75.2 °F73.4 °F94 %29.93 in2.5 miNE (40°)29.9 mph40.3 mphRainLight Rain
10:36 AM75.2 °F73.4 °F94 %29.93 in3.0 miNE (40°)28.8 mph39.1 mphRainLight Rain
10:42 AM75.2 °F73.4 °F94 %29.93 in4.0 miNE (40°)23.0 mph38.0 mphOvercast
10:47 AM75.2 °F73.4 °F94 %29.93 in7.0 miNE (40°)27.6 mph32.2 mphOvercast
10:50 AM75.2 °F71.6 °F89 %29.93 in5.0 miNE (50°)32.2 mph38.0 mphOvercast
10:52 AM75.2 °F71.6 °F89 %29.93 in4.0 miNE (40°)31.1 mph40.3 mphRainLight Rain
10:53 AM75.2 °F71.6 °F89 %29.93 in3.0 miNE (40°)32.2 mph40.3 mphRainLight Rain
10:55 AM74.3 °F72.5 °F94 %29.93 in3.0 miNE (40°)31.1 mph40.3 mph0.03 inLight Drizzle
11:12 AM73.4 °F71.6 °F94 %29.92 in5.0 miNNE (30°)27.6 mph36.8 mphRainLight Rain
11:18 AM75.2 °F71.6 °F89 %29.92 in9.0 miNE (50°)29.9 mph34.5 mphOvercast
11:19 AM75.2 °F71.6 °F89 %29.92 in9.0 miNE (40°)27.6 mph34.5 mphOvercast
11:27 AM75.2 °F71.6 °F89 %29.92 in8.0 miNNE (30°)28.8 mph39.1 mphOvercast
11:28 AM75.2 °F71.6 °F89 %29.92 in7.0 miNE (40°)32.2 mph39.1 mphLight Drizzle
11:29 AM75.2 °F71.6 °F89 %29.92 in7.0 miNE (40°)32.2 mph39.1 mphLight Drizzle
11:37 AM75.2 °F71.6 °F89 %29.92 in7.0 miNorthOvercast
11:54 AM75.2 °F71.6 °F89 %29.91 in10.0 miNE (40°)25.3 mph38.0 mphOvercast
11:55 AM74.8 °F71.6 °F90 %29.91 in10.0 miNE (40°)27.6 mph38.0 mph0.00 inOvercast
11:59 AM75.2 °F71.6 °F89 %29.91 in9.0 miNE (50°)34.5 mph38.0 mphOvercast
12:07 PM75.2 °F71.6 °F89 %29.91 in6.0 miNE (40°)26.5 mph39.1 mphOvercast
12:16 PM75.2 °F71.6 °F89 %29.90 in7.0 miNE (40°)25.3 mph38.0 mphOvercast
12:22 PM75.2 °F71.6 °F89 %29.90 in6.0 miNE (40°)29.9 mph36.8 mphRainLight Rain
12:33 PM75.2 °F71.6 °F89 %29.90 in7.0 miNE (40°)26.5 mph34.5 mphOvercast
12:36 PM75.2 °F71.6 °F89 %29.90 in7.0 miNE (40°)28.8 mph34.5 mphRainLight Rain
12:37 PM75.2 °F69.8 °F83 %29.89 in8.0 miNNE (30°)28.8 mph34.5 mphRainLight Rain
12:38 PM75.2 °F69.8 °F83 %29.89 in8.0 miNNE (30°)28.8 mph34.5 mphOvercast
12:39 PM75.2 °F69.8 °F83 %29.89 in8.0 miNE (40°)28.8 mph36.8 mphLight Drizzle
12:41 PM75.2 °F69.8 °F83 %29.89 in8.0 miNE (40°)29.9 mph36.8 mphLight Drizzle
12:46 PM75.2 °F69.8 °F83 %29.89 in9.0 miNE (40°)31.1 mph38.0 mphOvercast
12:55 PM75.6 °F70.5 °F84 %29.89 in8.0 miNE (40°)29.9 mph38.0 mph0.00 inOvercast
1:55 PM77.0 °F70.2 °F79 %29.85 in10.0 miNE (40°)27.6 mph35.7 mphOvercast
2:55 PM77.2 °F70.2 °F79 %29.84 in10.0 miNE (40°)28.8 mph36.8 mphOvercast
3:55 PM77.2 °F70.3 °F79 %29.84 in10.0 miNE (40°)27.6 mph34.5 mphMostly Cloudy
4:55 PM77.2 °F70.0 °F78 %29.86 in10.0 miNE (40°)25.3 mph33.4 mphMostly Cloudy
5:32 PM77.0 °F69.8 °F78 %29.87 in10.0 miNE (40°)27.6 mph34.5 mphMostly Cloudy
5:33 PM77.0 °F69.8 °F78 %29.87 in10.0 miNE (40°)26.5 mph34.5 mphMostly Cloudy
5:55 PM76.8 °F69.6 °F78 %29.87 in10.0 miNE (40°)28.8 mphMostly Cloudy
6:55 PM75.6 °F70.0 °F83 %29.89 in10.0 miNE (40°)24.2 mph33.4 mphMostly Cloudy
7:55 PM75.0 °F70.5 °F86 %29.91 in8.0 miNE (40°)26.5 mph32.2 mphOvercast
8:23 PM75.2 °F71.6 °F89 %29.92 in10.0 miNE (40°)23.0 mphMostly Cloudy
8:25 PM75.2 °F71.6 °F89 %29.92 in10.0 miNE (50°)24.2 mph31.1 mphMostly Cloudy
8:27 PM75.2 °F71.6 °F89 %29.92 in10.0 miNE (50°)25.3 mph31.1 mphScattered Clouds
8:29 PM75.2 °F71.6 °F89 %29.92 in10.0 miNE (40°)21.9 mph31.1 mphMostly Cloudy
8:36 PM75.2 °F69.8 °F83 %29.92 in10.0 miNE (40°)25.3 mphMostly Cloudy
8:38 PM75.2 °F69.8 °F83 %29.92 in10.0 miNE (50°)23.0 mphMostly Cloudy
8:55 PM75.2 °F69.8 °F83 %29.93 in10.0 miNE (40°)24.2 mph31.1 mphMostly Cloudy
9:55 PM75.7 °F70.0 °F82 %29.93 in9.0 miNE (50°)21.9 mphOvercast
10:32 PM77.0 °F69.8 °F78 %29.93 in10.0 miNE (50°)23.0 mph29.9 mphMostly Cloudy
10:36 PM77.0 °F69.8 °F78 %29.92 in10.0 miNE (50°)24.2 mphMostly Cloudy
10:55 PM75.9 °F70.0 °F82 %29.92 in7.0 miNE (50°)24.2 mph29.9 mphMostly Cloudy
11:24 PM75.2 °F69.8 °F83 %29.91 in10.0 miNE (50°)19.6 mph32.2 mphMostly Cloudy
11:26 PM75.2 °F69.8 °F83 %29.91 in10.0 miNE (50°)21.9 mph32.2 mphMostly Cloudy
11:55 PM76.1 °F70.0 °F81 %29.91 in10.0 miNE (50°)21.9 mph27.6 mphOvercast
Hourly data recorded from PGUA, located miles away from Mangilao, Guam







STORIES FROM OUR PARTNERS